[[{"header":{"parameterUnit":"m.s-1","parameterCategory":2,"la1":30.2991,"la2":30.254,"lo1":-89.0895,"lo2":-89.0444,"dy":0.0017,"dx":0.0017,"nx":28,"ny":28,"refTime":"2025-06-13T21:00:00:Z","depth":"0","parameterNumber":2,"parameterNumberName":"U-component_of_CURRENTS"},"data":[0,0,0,0,0,0,0,0,0,0,0,0,0,0,0,0,0,0,0,0,0,0,0,0,0,0,0,0,0,0,0,0,0,0,0,0,0,0,0,0,0,0,0,0,0,0,0,0,0,0,0,0,0,0,0,0,0,0,-0.2772,-0.2772,0,-0.2797,-0.2797,-0.2797,-0.2773,-0.2772,-0.2772,-0.2771,-0.2729,-0.2729,-0.2728,0,0,0,0,0,0,0,0,0,0,0,0,0,-0.2689,-0.2691,-0.2771,-0.2772,-0.2773,-0.2797,-0.2797,-0.2797,-0.2773,-0.2772,-0.2771,-0.2771,-0.2729,-0.2729,-0.2728,0,0,0,0,0,0,0,0,0,0,0,0,0,-0.2718,-0.2691,-0.2771,-0.2766,-0.2765,-0.2797,-0.2797,-0.2797,-0.2773,-0.2772,-0.2771,-0.277,-0.273,-0.2729,-0.2728,-0.2746,0,0,-0.2726,-0.2726,0,0,0,0,0,0,0,0,-0.2717,-0.2721,-0.2766,-0.2766,-0.2766,-0.2783,-0.2753,-0.2778,-0.2774,-0.2768,-0.2771,-0.277,-0.2744,-0.2742,-0.2746,-0.2744,-0.2742,-0.2726,-0.2726,-0.2726,-0.2725,0,0,0,0,0,0,0,-0.2715,-0.272,-0.2779,-0.2767,-0.2767,-0.2758,-0.276,-0.2758,-0.2758,-0.2768,-0.2767,-0.2774,-0.2743,-0.2747,-0.2745,-0.2742,-0.2726,-0.2726,-0.2725,-0.2725,-0.2756,-0.2757,0,0,0,0,0,0,-0.2719,-0.2718,-0.2778,-0.278,-0.2741,-0.276,-0.2763,-0.2777,-0.2759,-0.2757,-0.2775,-0.2773,-0.2749,-0.2746,-0.2743,-0.2763,-0.2726,-0.2725,-0.2725,-0.2754,-0.2756,-0.2757,0,0,0,0,0,0,-0.2718,-0.2725,-0.2777,-0.2751,-0.2757,-0.2763,-0.2778,-0.2778,-0.2777,-0.2766,-0.2762,-0.2774,-0.2748,-0.2744,-0.2745,-0.2761,-0.2725,-0.2724,-0.2753,-0.2755,-0.2757,-0.2802,0,0,0,0,0,0,-0.2715,-0.2724,-0.2728,-0.2752,-0.2759,-0.2798,-0.278,-0.2779,-0.2785,-0.2782,-0.2764,-0.276,-0.2746,-0.2746,-0.2744,-0.2759,-0.2724,-0.2752,-0.2754,-0.2756,-0.2799,-0.2805,-0.281,0,0,0,0,0,-0.2712,-0.2725,-0.2729,-0.2736,-0.2768,-0.2799,-0.2802,-0.28,-0.2786,-0.2792,-0.2782,-0.276,-0.2759,-0.2747,-0.2744,-0.2759,-0.275,-0.2753,-0.2756,-0.2796,-0.2804,-0.281,0,0,0,0,0,0,-0.2688,-0.2725,-0.2729,-0.2751,-0.2775,-0.2796,-0.2799,-0.2802,-0.28,-0.2791,-0.2773,-0.2769,-0.2778,-0.2765,-0.2752,-0.2777,-0.2752,-0.2755,-0.2784,-0.2791,-0.2796,-0.2797,-0.2723,0,0,0,0,0,-0.2688,-0.2706,-0.2741,-0.2757,-0.2769,-0.2784,-0.2793,-0.2798,-0.2805,-0.2802,-0.2793,-0.2786,-0.2791,-0.2786,-0.2786,-0.2797,-0.2776,-0.2807,-0.2812,-0.2817,-0.2818,-0.2818,-0.2824,-0.2766,-0.2766,-0.2766,0,0,-0.268,-0.2704,-0.2712,-0.2753,-0.2766,-0.2795,-0.2786,-0.2805,-0.2826,-0.2798,-0.2809,-0.2804,-0.2799,-0.2814,-0.2816,-0.2802,-0.2819,-0.2821,-0.2825,-0.2823,-0.2822,-0.2827,-0.2832,-0.2768,-0.2768,-0.2767,0,0,-0.2681,-0.2698,-0.2717,-0.2745,-0.2778,-0.2795,-0.2803,-0.2828,-0.2833,-0.2852,-0.284,-0.2845,-0.2846,-0.285,-0.2852,-0.2889,-0.2852,-0.289,-0.2915,-0.2916,-0.292,-0.2924,-0.2885,-0.2885,-0.289,-0.289,-0.289,0,-0.2668,-0.2701,-0.2725,-0.2757,-0.2779,-0.2798,-0.2825,-0.2844,-0.2865,-0.2874,-0.2858,-0.2876,-0.2866,-0.2893,-0.2905,-0.2902,-0.2882,-0.2887,-0.2922,-0.2925,-0.2928,-0.2888,-0.2887,-0.2892,-0.2892,-0.2892,-0.2891,0,-0.2688,-0.2717,-0.2731,-0.2779,-0.2808,-0.2833,-0.2873,-0.2893,-0.2898,-0.2913,-0.2935,-0.293,-0.2936,-0.2942,-0.2932,-0.2958,-0.2929,-0.293,-0.2902,-0.2937,-0.2892,-0.289,-0.2896,-0.2895,-0.2894,-0.2893,0,0,-0.2647,-0.2729,-0.2731,-0.2759,-0.2821,-0.2845,-0.2891,-0.2935,-0.2955,-0.2972,-0.2991,-0.301,-0.3,-0.3001,-0.2994,-0.2996,-0.2992,-0.2972,-0.2971,-0.2927,-0.2964,-0.2845,-0.2831,-0.3001,-0.3002,-0.3002,-0.2917,0,-0.2649,-0.2708,-0.2752,-0.2802,-0.2834,-0.2881,-0.2923,-0.2966,-0.2988,-0.3011,-0.302,-0.3032,-0.3026,-0.3022,-0.3029,-0.3006,-0.2994,-0.3013,-0.2942,-0.2939,-0.2825,-0.2828,-0.2709,-0.2616,-0.2915,-0.2915,-0.2915,0,-0.2645,-0.269,-0.274,-0.2819,-0.2836,-0.287,-0.2932,-0.2971,-0.3022,-0.3038,-0.3061,-0.3063,-0.3074,-0.3057,-0.3038,-0.3049,-0.3008,-0.2986,-0.2982,-0.2854,-0.2818,-0.2634,-0.2601,-0.2587,-0.2912,-0.2912,-0.2912,0,-0.2591,-0.2675,-0.2711,-0.2739,-0.2834,-0.2861,-0.2904,-0.2969,-0.3,-0.3045,-0.3061,-0.3083,-0.3078,-0.3059,-0.3004,-0.3025,-0.2955,-0.2978,-0.283,-0.282,-0.2695,-0.2672,-0.2633,-0.2955,-0.2955,-0.2955,-0.2955,0,-0.257,-0.2595,-0.2687,-0.2707,-0.2747,-0.2826,-0.2867,-0.2916,-0.2981,-0.3,-0.3058,-0.306,-0.308,-0.3043,-0.3001,-0.2887,-0.2948,-0.2822,-0.2793,-0.2703,-0.2684,-0.2646,-0.2682,-0.2952,-0.2953,-0.2953,-0.2954,0,-0.2494,-0.2559,-0.2602,-0.2696,-0.2721,-0.2742,-0.2834,-0.286,-0.294,-0.2964,-0.2976,-0.3036,-0.2984,-0.2964,-0.2911,-0.2859,-0.272,-0.2717,-0.2586,-0.2542,-0.2397,-0.2441,-0.2366,-0.2298,-0.2554,-0.255,-0.2547,0,-0.2458,-0.2471,-0.2562,-0.2575,-0.2611,-0.2665,-0.2696,-0.2808,-0.2838,-0.2925,-0.2917,-0.2913,-0.2849,-0.273,-0.2646,-0.2527,-0.2562,-0.2366,-0.2393,-0.2356,-0.2385,-0.243,-0.2384,-0.2241,-0.2235,-0.2231,-0.2228,0,-0.2369,-0.2399,-0.2431,-0.247,-0.2501,-0.2541,-0.2597,-0.2623,-0.2735,-0.2758,-0.2745,-0.2701,-0.2611,-0.2443,-0.232,-0.2248,-0.2312,-0.2274,-0.2287,-0.2169,-0.2167,-0.2098,-0.2317,-0.219,-0.2194,-0.2197,-0.2199,-0.22,-0.2277,-0.2278,-0.2318,-0.2329,-0.237,-0.2379,-0.2307,-0.241,-0.2421,-0.2388,-0.2496,-0.2367,-0.2305,-0.2109,-0.2033,-0.1908,-0.201,-0.1878,-0.1939,-0.1993,-0.1912,-0.2019,-0.1834,-0.1836,-0.1837,-0.1838,-0.1839,0,-0.2157,-0.2163,-0.217,-0.2175,-0.2104,-0.2182,-0.219,-0.2061,-0.1987,-0.2063,-0.2012,-0.1963,-0.1825,-0.1788,-0.1697,-0.1615,-0.1607,-0.16,-0.1668,-0.1641,-0.1761,-0.1729,-0.145,-0.1451,-0.1451,-0.1451,-0.1451,-0.1451,-0.2098,-0.2053,-0.2049,-0.1883,-0.184,-0.1657,-0.1571,-0.1481,-0.1449,-0.1348,-0.1351,-0.1364,-0.1499,-0.1687,-0.1597,-0.1519,-0.152,-0.1461,-0.1514,-0.1644,-0.1676,-0.1708,-0.1686,-0.1403,-0.1403,-0.1323,-0.1323,-0.1323]},{"header":{"parameterUnit":"m.s-1","parameterCategory":2,"la1":30.2991,"la2":30.254,"lo1":-89.0895,"lo2":-89.0444,"dy":0.0017,"dx":0.0017,"nx":28,"ny":28,"refTime":"2025-06-13T21:00:00:Z","depth":"0","parameterNumber":3,"parameterNumberName":"V-component_of_CURRENTS"},"data":[0,0,0,0,0,0,0,0,0,0,0,0,0,0,0,0,0,0,0,0,0,0,0,0,0,0,0,0,0,0,0,0,0,0,0,0,0,0,0,0,0,0,0,0,0,0,0,0,0,0,0,0,0,0,0,0,0,0,-0.0089,-0.0088,0,0.0002,0.0003,0.0005,0.0083,0.0083,0.0084,0.0085,0.0222,0.0225,0.0228,0,0,0,0,0,0,0,0,0,0,0,0,0,-0.0145,-0.0145,-0.0089,-0.0088,-0.0087,0.0002,0.0003,0.0005,0.0083,0.0084,0.0084,0.0085,0.0221,0.0224,0.0228,0,0,0,0,0,0,0,0,0,0,0,0,0,-0.0092,-0.0145,-0.0089,-0.0039,-0.0034,0.0002,0.0003,0.0005,0.0083,0.0084,0.0085,0.0086,0.0219,0.0224,0.0228,0.0236,0,0,0.0242,0.0244,0,0,0,0,0,0,0,0,-0.0096,-0.009,-0.0048,-0.0043,-0.0037,0.003,0.0034,0.0084,0.0082,0.004,0.0085,0.0086,0.016,0.0169,0.0186,0.0242,0.0248,0.0242,0.0245,0.0247,0.0248,0,0,0,0,0,0,0,-0.0099,-0.0093,-0.0051,-0.0047,-0.004,-0.0004,0.0004,0.0044,0.0096,0.0044,0.005,0.0056,0.0164,0.0182,0.019,0.025,0.0242,0.0246,0.0249,0.0251,0.0336,0.0336,0,0,0,0,0,0,-0.0119,-0.0097,-0.0054,-0.0048,-0.0066,-0.0004,0.0005,0.0009,0.0094,0.0107,0.0055,0.0059,0.0174,0.0185,0.0195,0.0213,0.0247,0.0251,0.0254,0.0337,0.0336,0.0336,0,0,0,0,0,0,-0.012,-0.0116,-0.0058,-0.0072,-0.0062,-0.0005,-0.0001,0.0011,0.003,0.0102,0.0116,0.0062,0.0175,0.0189,0.0227,0.0218,0.0253,0.0257,0.0337,0.0337,0.0336,0.0245,0,0,0,0,0,0,-0.0122,-0.0117,-0.0124,-0.0074,-0.0062,-0.0049,-0.0001,0.0012,0.0031,0.0038,0.0113,0.0127,0.0177,0.022,0.0231,0.0225,0.0261,0.0338,0.0337,0.0336,0.0248,0.0241,0.0235,0,0,0,0,0,-0.0125,-0.0145,-0.0125,-0.012,-0.0073,-0.0051,-0.0042,0.0005,0.003,0.0028,0.0083,0.0124,0.0223,0.0223,0.0237,0.0232,0.0338,0.0337,0.0336,0.0251,0.0243,0.0235,0,0,0,0,0,0,-0.0174,-0.0137,-0.0115,-0.0122,-0.0093,-0.0038,-0.0038,-0.0005,0.0037,0.0045,0.0118,0.0135,0.0164,0.0208,0.0206,0.0254,0.0288,0.0289,0.0218,0.0211,0.0204,0.0193,0.0265,0,0,0,0,0,-0.019,-0.0193,-0.0149,-0.0156,-0.0146,-0.0093,-0.0078,-0.0048,-0.0004,0.0016,0.0069,0.0125,0.017,0.0198,0.0241,0.0266,0.0332,0.0272,0.0265,0.0259,0.026,0.0353,0.0355,0.0333,0.0333,0.0333,0,0,-0.021,-0.0191,-0.0192,-0.0167,-0.0139,-0.0137,-0.0081,-0.0069,-0.006,0.0024,0.0047,0.01,0.017,0.0199,0.0216,0.0236,0.0299,0.0258,0.0252,0.0257,0.0352,0.0354,0.0356,0.0332,0.0332,0.0332,0,0,-0.0262,-0.0237,-0.0259,-0.0241,-0.0211,-0.0176,-0.0178,-0.0129,-0.01,-0.0074,-0.0009,0.0039,0.01,0.0156,0.0191,0.0174,0.0257,0.0183,0.0147,0.0235,0.0238,0.0242,0.0323,0.0335,0.0184,0.0184,0.0184,0,-0.0291,-0.0306,-0.0263,-0.0278,-0.0267,-0.0201,-0.0217,-0.0183,-0.0127,-0.0099,-0.0081,0.0032,0.0083,0.0143,0.0133,0.0159,0.0222,0.0169,0.0227,0.0232,0.0237,0.032,0.0334,0.0179,0.018,0.018,0.0181,0,-0.0354,-0.0364,-0.0376,-0.0368,-0.0352,-0.0357,-0.0303,-0.028,-0.0236,-0.0187,-0.0125,-0.0047,0.0026,0.0045,0.0082,0.0139,0.0175,0.0203,0.0246,0.0234,0.0322,0.0338,0.0173,0.0175,0.0176,0.0177,0,0,-0.0421,-0.0423,-0.0426,-0.0434,-0.0399,-0.0392,-0.0375,-0.0331,-0.0305,-0.0243,-0.0196,-0.0123,-0.0064,-0.0021,0.0043,0.0115,0.0194,0.0162,0.0169,0.024,0.0392,0.0417,0.0438,0.0234,0.0236,0.0238,0.0438,0,-0.0483,-0.0535,-0.0508,-0.0541,-0.0559,-0.0491,-0.0477,-0.0423,-0.0358,-0.0297,-0.0195,-0.0133,-0.0092,-0.0053,0.0022,0.0154,0.0233,0.0138,0.0397,0.0404,0.0426,0.0456,0.0485,0.0665,0.0454,0.0457,0.0459,0,-0.0552,-0.0575,-0.0627,-0.0619,-0.0618,-0.062,-0.0563,-0.0541,-0.0433,-0.0378,-0.0287,-0.0198,-0.0086,-0.0051,0.0173,0.011,0.0237,0.034,0.0352,0.042,0.046,0.0646,0.0703,0.0857,0.0484,0.0482,0.048,0,-0.0622,-0.0652,-0.0694,-0.0696,-0.0679,-0.0675,-0.0653,-0.0567,-0.0533,-0.042,-0.0371,-0.0223,-0.0131,0.0033,0.0234,0.0212,0.0493,0.0497,0.0645,0.0648,0.0747,0.0755,0.0983,0.0662,0.0661,0.0661,0.066,0,-0.0699,-0.073,-0.0733,-0.0759,-0.0789,-0.0744,-0.0741,-0.069,-0.0599,-0.054,-0.042,-0.0326,-0.0104,0.0081,0.0244,0.05,0.0511,0.0652,0.0708,0.0714,0.0716,0.0913,0.0957,0.0668,0.0667,0.0665,0.0664,0,-0.0771,-0.0777,-0.0826,-0.0829,-0.083,-0.0849,-0.0814,-0.0795,-0.0706,-0.062,-0.0584,-0.0376,-0.0132,0.0095,0.0397,0.0527,0.0862,0.0844,0.0829,0.0877,0.1118,0.1153,0.1437,0.1536,0.1033,0.1035,0.1036,0,-0.0816,-0.0851,-0.0887,-0.0912,-0.0919,-0.0933,-0.0933,-0.0861,-0.0825,-0.0636,-0.0592,-0.0342,-0.014,0.0292,0.0567,0.0875,0.099,0.1073,0.1027,0.1152,0.1235,0.126,0.1324,0.1132,0.1134,0.1136,0.1137,0,-0.0887,-0.0896,-0.093,-0.098,-0.1002,-0.1023,-0.1009,-0.0991,-0.087,-0.0766,-0.0554,-0.0373,0.0033,0.0404,0.0777,0.0955,0.1176,0.1118,0.1277,0.1354,0.1374,0.1487,0.097,0.1154,0.1152,0.1151,0.115,0.1149,-0.0916,-0.0951,-0.0979,-0.1007,-0.1042,-0.1047,-0.1002,-0.0955,-0.0853,-0.058,-0.0497,-0.011,0.0278,0.0808,0.1,0.1385,0.1341,0.1502,0.1545,0.1568,0.1633,0.1133,0.1349,0.1349,0.1348,0.1348,0.1348,0,-0.0893,-0.0929,-0.0989,-0.0986,-0.0972,-0.1003,-0.098,-0.0869,-0.0679,-0.0442,-0.0186,0.0342,0.0766,0.1149,0.1601,0.1808,0.1851,0.1912,0.1972,0.2025,0.1631,0.1603,0.1848,0.1848,0.1847,0.1847,0.1847,0.1847,-0.0877,-0.0893,-0.0906,-0.0863,-0.0856,-0.0775,-0.0724,-0.0586,-0.0399,0.0051,0.0449,0.0703,0.1108,0.1737,0.2171,0.2215,0.2401,0.2373,0.2479,0.2206,0.217,0.2137,0.2125,0.2475,0.2476,0.2871,0.2875,0.2878]}],[{"header":{"parameterUnit":"m.s-1","parameterCategory":2,"la1":30.2991,"la2":30.254,"lo1":-89.0895,"lo2":-89.0444,"dy":0.0017,"dx":0.0017,"nx":28,"ny":28,"refTime":"2025-06-13T21:00:00:Z","depth":"2","parameterNumber":2,"parameterNumberName":"U-component_of_CURRENTS"},"data":[0,0,0,0,0,0,0,0,0,0,0,0,0,0,0,0,0,0,0,0,0,0,0,0,0,0,0,0,0,0,0,0,0,0,0,0,0,0,0,0,0,0,0,0,0,0,0,0,0,0,0,0,0,0,0,0,0,0,-0.2555,-0.2555,0,-0.2591,-0.2591,-0.2591,-0.2574,-0.2573,-0.2572,-0.2572,-0.2548,-0.2548,-0.2548,0,0,0,0,0,0,0,0,0,0,0,0,0,-0.2467,-0.2469,-0.2555,-0.2555,-0.2556,-0.2591,-0.2591,-0.2591,-0.2574,-0.2573,-0.2572,-0.2571,-0.2548,-0.2548,-0.2548,0,0,0,0,0,0,0,0,0,0,0,0,0,-0.2502,-0.2469,-0.2554,-0.2553,-0.2554,-0.2591,-0.2591,-0.2592,-0.2574,-0.2573,-0.2572,-0.2571,-0.2548,-0.2548,-0.2548,-0.2569,0,0,-0.2548,-0.2548,0,0,0,0,0,0,0,0,-0.25,-0.2505,-0.2553,-0.2553,-0.2554,-0.2579,-0.2552,-0.2582,-0.2574,-0.2564,-0.2572,-0.257,-0.2555,-0.2554,-0.2561,-0.2568,-0.2567,-0.2548,-0.2548,-0.2548,-0.2548,0,0,0,0,0,0,0,-0.2498,-0.2503,-0.2566,-0.2554,-0.2554,-0.255,-0.2554,-0.2557,-0.2562,-0.2564,-0.2564,-0.2572,-0.2554,-0.2561,-0.256,-0.2567,-0.2548,-0.2548,-0.2548,-0.2548,-0.2595,-0.2596,0,0,0,0,0,0,-0.25,-0.2501,-0.2565,-0.2568,-0.2527,-0.2553,-0.2557,-0.257,-0.2563,-0.2562,-0.2573,-0.2571,-0.2561,-0.256,-0.2559,-0.2589,-0.2548,-0.2548,-0.2548,-0.2593,-0.2595,-0.2596,0,0,0,0,0,0,-0.2498,-0.2506,-0.2564,-0.2537,-0.2544,-0.2556,-0.2571,-0.2571,-0.2577,-0.2571,-0.2568,-0.2578,-0.256,-0.2559,-0.2569,-0.2587,-0.2548,-0.2548,-0.2592,-0.2594,-0.2596,-0.2646,0,0,0,0,0,0,-0.2495,-0.2505,-0.2512,-0.2537,-0.2546,-0.2591,-0.2572,-0.2573,-0.2585,-0.2582,-0.2574,-0.2571,-0.2559,-0.2569,-0.2569,-0.2587,-0.2548,-0.259,-0.2593,-0.2595,-0.2642,-0.2649,-0.2654,0,0,0,0,0,-0.2492,-0.2509,-0.2512,-0.252,-0.2557,-0.2592,-0.2596,-0.2598,-0.2586,-0.2596,-0.2591,-0.2571,-0.2583,-0.257,-0.257,-0.2588,-0.2589,-0.2592,-0.2595,-0.264,-0.2648,-0.2654,0,0,0,0,0,0,-0.2471,-0.251,-0.2513,-0.2539,-0.2566,-0.259,-0.2599,-0.2603,-0.2608,-0.2601,-0.2587,-0.2585,-0.2602,-0.2591,-0.2577,-0.2609,-0.2583,-0.2586,-0.2617,-0.2625,-0.2631,-0.2628,-0.2548,0,0,0,0,0,-0.2473,-0.2494,-0.253,-0.2548,-0.2563,-0.2581,-0.2594,-0.2601,-0.2613,-0.2614,-0.261,-0.2607,-0.2615,-0.2615,-0.2619,-0.2637,-0.2615,-0.2649,-0.2655,-0.266,-0.2659,-0.2658,-0.2663,-0.2605,-0.2605,-0.2605,0,0,-0.2468,-0.2492,-0.2503,-0.2545,-0.2562,-0.2595,-0.2585,-0.2612,-0.2635,-0.2611,-0.2631,-0.2629,-0.2626,-0.2647,-0.2653,-0.2638,-0.2663,-0.2664,-0.2668,-0.2664,-0.2661,-0.2667,-0.2671,-0.2607,-0.2607,-0.2606,0,0,-0.2475,-0.2494,-0.2516,-0.2545,-0.2583,-0.2601,-0.2611,-0.2642,-0.265,-0.2677,-0.2666,-0.2675,-0.2685,-0.2689,-0.2692,-0.2735,-0.2698,-0.2736,-0.2762,-0.2761,-0.2765,-0.2769,-0.2736,-0.2737,-0.2737,-0.2737,-0.2737,0,-0.2466,-0.2502,-0.2527,-0.2562,-0.2586,-0.2606,-0.2639,-0.266,-0.2689,-0.2699,-0.2687,-0.2712,-0.2707,-0.2735,-0.2749,-0.2748,-0.2729,-0.2733,-0.2768,-0.2771,-0.2774,-0.274,-0.2739,-0.274,-0.2739,-0.2739,-0.2739,0,-0.2494,-0.2525,-0.2542,-0.2593,-0.2624,-0.2654,-0.2695,-0.2719,-0.2728,-0.2745,-0.2773,-0.2773,-0.2782,-0.279,-0.278,-0.2806,-0.2778,-0.2777,-0.2747,-0.2783,-0.2744,-0.2743,-0.2743,-0.2742,-0.2742,-0.2741,0,0,-0.2459,-0.2544,-0.2548,-0.2576,-0.2642,-0.2668,-0.2718,-0.2764,-0.2785,-0.281,-0.2831,-0.2855,-0.2847,-0.2849,-0.2843,-0.2844,-0.2844,-0.2819,-0.2818,-0.278,-0.2817,-0.2709,-0.2696,-0.2848,-0.2849,-0.2849,-0.2777,0,-0.2467,-0.2531,-0.2576,-0.2631,-0.2665,-0.2711,-0.2754,-0.2799,-0.2825,-0.285,-0.2862,-0.2878,-0.2874,-0.2872,-0.2878,-0.2854,-0.2845,-0.2861,-0.2792,-0.279,-0.2685,-0.2693,-0.2504,-0.2416,-0.2776,-0.2775,-0.2775,0,-0.2471,-0.2516,-0.2573,-0.2651,-0.2669,-0.2706,-0.2767,-0.2809,-0.286,-0.2878,-0.2904,-0.2908,-0.292,-0.2905,-0.2886,-0.2896,-0.2859,-0.2837,-0.2834,-0.2713,-0.2679,-0.2442,-0.24,-0.2772,-0.2773,-0.2773,-0.2773,0,-0.2421,-0.2508,-0.2549,-0.2578,-0.2672,-0.27,-0.2744,-0.2809,-0.2839,-0.2887,-0.2902,-0.2926,-0.2922,-0.2906,-0.286,-0.2874,-0.2816,-0.2829,-0.2697,-0.2688,-0.2501,-0.2475,-0.2809,-0.2809,-0.2809,-0.281,-0.281,0,-0.2405,-0.2434,-0.2528,-0.2549,-0.2591,-0.267,-0.2711,-0.276,-0.2823,-0.2841,-0.2902,-0.2902,-0.2923,-0.2894,-0.2858,-0.2756,-0.2813,-0.269,-0.2664,-0.2511,-0.2488,-0.2783,-0.278,-0.2807,-0.2807,-0.2808,-0.2808,0,-0.2336,-0.2403,-0.245,-0.2543,-0.2568,-0.2592,-0.2681,-0.2705,-0.2784,-0.2806,-0.2818,-0.2876,-0.2831,-0.2822,-0.2775,-0.273,-0.2659,-0.2608,-0.2409,-0.2361,-0.2532,-0.2534,-0.246,-0.2455,-0.2452,-0.2448,-0.2446,0,-0.2305,-0.2323,-0.2414,-0.2427,-0.2465,-0.2519,-0.2547,-0.2657,-0.2682,-0.2767,-0.2756,-0.2758,-0.2698,-0.26,-0.252,-0.2418,-0.2528,-0.2207,-0.2208,-0.2515,-0.2498,-0.2505,-0.2512,-0.1975,-0.1969,-0.1964,-0.196,0,-0.2224,-0.2256,-0.2288,-0.232,-0.2351,-0.2395,-0.2447,-0.2468,-0.2575,-0.2601,-0.2588,-0.2549,-0.2462,-0.2269,-0.2171,-0.21,-0.2213,-0.2099,-0.2464,-0.2098,-0.2054,-0.2039,-0.2062,-0.1914,-0.1919,-0.1922,-0.1925,-0.1926,-0.2135,-0.213,-0.2162,-0.2168,-0.2213,-0.2225,-0.2202,-0.2267,-0.228,-0.2266,-0.2343,-0.2214,-0.218,-0.1905,-0.18,-0.1734,-0.189,-0.1829,-0.1847,-0.1869,-0.1832,-0.1784,-0.1584,-0.1587,-0.1589,-0.1591,-0.1593,0,-0.1988,-0.1991,-0.1999,-0.1995,-0.1965,-0.2057,-0.2082,-0.2026,-0.1969,-0.1996,-0.1947,-0.1718,-0.1576,-0.1549,-0.1366,-0.1336,-0.1346,-0.1295,-0.1316,-0.1361,-0.1401,-0.1342,-0.0963,-0.0961,-0.096,-0.0958,0,0,-0.1906,-0.1843,-0.1835,-0.1721,-0.173,-0.1649,-0.1632,-0.1586,-0.1568,-0.1478,-0.1412,-0.1486,-0.149,-0.1227,-0.1169,-0.1036,-0.119,-0.0982,-0.1484,-0.1553,-0.1591,-0.17,-0.1658,0,0,0,0,0]},{"header":{"parameterUnit":"m.s-1","parameterCategory":2,"la1":30.2991,"la2":30.254,"lo1":-89.0895,"lo2":-89.0444,"dy":0.0017,"dx":0.0017,"nx":28,"ny":28,"refTime":"2025-06-13T21:00:00:Z","depth":"2","parameterNumber":3,"parameterNumberName":"V-component_of_CURRENTS"},"data":[0,0,0,0,0,0,0,0,0,0,0,0,0,0,0,0,0,0,0,0,0,0,0,0,0,0,0,0,0,0,0,0,0,0,0,0,0,0,0,0,0,0,0,0,0,0,0,0,0,0,0,0,0,0,0,0,0,0,-0.0222,-0.0221,0,-0.013,-0.0129,-0.0127,-0.0062,-0.0062,-0.0062,-0.0061,0.0071,0.0074,0.0077,0,0,0,0,0,0,0,0,0,0,0,0,0,-0.0283,-0.0283,-0.0222,-0.0221,-0.022,-0.013,-0.0129,-0.0127,-0.0062,-0.0062,-0.0062,-0.0061,0.007,0.0074,0.0078,0,0,0,0,0,0,0,0,0,0,0,0,0,-0.0229,-0.0282,-0.0222,-0.0178,-0.0173,-0.013,-0.0129,-0.0127,-0.0062,-0.0062,-0.0061,-0.0061,0.0069,0.0073,0.0078,0.0097,0,0,0.0093,0.0095,0,0,0,0,0,0,0,0,-0.0232,-0.0226,-0.0186,-0.0181,-0.0176,-0.0109,-0.0102,-0.005,-0.0063,-0.0103,-0.0061,-0.0061,0.0013,0.0022,0.0041,0.0103,0.0109,0.0093,0.0096,0.0098,0.0099,0,0,0,0,0,0,0,-0.0236,-0.023,-0.0184,-0.0185,-0.0179,-0.0143,-0.0135,-0.0091,-0.0047,-0.0099,-0.0095,-0.0087,0.0016,0.0036,0.0044,0.0111,0.0093,0.0097,0.01,0.0102,0.0213,0.0213,0,0,0,0,0,0,-0.0255,-0.0234,-0.0187,-0.0181,-0.0205,-0.0143,-0.0134,-0.0129,-0.0048,-0.0036,-0.0088,-0.0085,0.0027,0.0039,0.0049,0.0079,0.0098,0.0103,0.0105,0.0212,0.0213,0.0213,0,0,0,0,0,0,-0.0256,-0.0251,-0.019,-0.0206,-0.0196,-0.0143,-0.0138,-0.0128,-0.0108,-0.004,-0.0027,-0.0079,0.0028,0.0043,0.0087,0.0085,0.0105,0.0109,0.0212,0.0212,0.0213,0.0138,0,0,0,0,0,0,-0.0259,-0.0253,-0.0258,-0.0208,-0.0196,-0.0174,-0.0138,-0.0126,-0.0105,-0.01,-0.0028,-0.0015,0.003,0.008,0.0092,0.0092,0.0113,0.0212,0.0212,0.0213,0.014,0.0135,0.0131,0,0,0,0,0,-0.0261,-0.0274,-0.0258,-0.0253,-0.0204,-0.0174,-0.0165,-0.0123,-0.0106,-0.0102,-0.0051,-0.0018,0.0089,0.0084,0.0098,0.0099,0.0212,0.0212,0.0213,0.0142,0.0136,0.0131,0,0,0,0,0,0,-0.0303,-0.0267,-0.0249,-0.025,-0.0218,-0.0164,-0.0159,-0.013,-0.0087,-0.0081,-0.0016,0.0001,0.0038,0.0079,0.0071,0.0132,0.0156,0.0159,0.0097,0.0092,0.0088,0.0072,0.0117,0,0,0,0,0,-0.0316,-0.0315,-0.0272,-0.0273,-0.0261,-0.0211,-0.0194,-0.0167,-0.0122,-0.0103,-0.0052,0.0003,0.005,0.0078,0.0123,0.0157,0.0205,0.0168,0.0163,0.0159,0.0156,0.0228,0.023,0.0213,0.0213,0.0213,0,0,-0.0332,-0.0313,-0.0312,-0.0282,-0.0254,-0.0244,-0.0199,-0.0181,-0.0168,-0.0095,-0.0064,-0.0014,0.0054,0.0091,0.0112,0.0126,0.0188,0.0159,0.0155,0.0155,0.0228,0.023,0.0232,0.0213,0.0213,0.0213,0,0,-0.0369,-0.0349,-0.0361,-0.034,-0.0307,-0.0273,-0.0272,-0.0222,-0.0195,-0.016,-0.0104,-0.0055,0.0013,0.0065,0.0099,0.0098,0.0158,0.011,0.008,0.0149,0.0151,0.0153,0.0208,0.0216,0.0112,0.0112,0.0112,0,-0.0393,-0.04,-0.036,-0.0364,-0.0353,-0.0292,-0.03,-0.0263,-0.0204,-0.018,-0.0162,-0.0051,0.0002,0.0061,0.0059,0.0088,0.0132,0.0092,0.0142,0.0145,0.0149,0.0205,0.0215,0.0108,0.0109,0.0109,0.0109,0,-0.0434,-0.0439,-0.0445,-0.043,-0.041,-0.0408,-0.0355,-0.033,-0.0291,-0.0246,-0.0186,-0.0107,-0.004,-0.0016,0.0021,0.0073,0.0096,0.0123,0.0151,0.0146,0.0206,0.0217,0.0103,0.0104,0.0105,0.0106,0,0,-0.0488,-0.0479,-0.0481,-0.0488,-0.0446,-0.0437,-0.0413,-0.0371,-0.0351,-0.0285,-0.0248,-0.0165,-0.0116,-0.0074,-0.0013,0.0048,0.0107,0.0087,0.0092,0.0133,0.0251,0.0273,0.0288,0.0142,0.0144,0.0145,0.0279,0,-0.0535,-0.0568,-0.0541,-0.0563,-0.0574,-0.0514,-0.0496,-0.0446,-0.0389,-0.0338,-0.0242,-0.0186,-0.0138,-0.0105,-0.0038,0.0072,0.0134,0.0067,0.0258,0.0264,0.0277,0.0301,0.0273,0.0391,0.0291,0.0293,0.0294,0,-0.0584,-0.0601,-0.0638,-0.0633,-0.063,-0.0627,-0.0583,-0.0559,-0.0466,-0.0419,-0.0339,-0.0259,-0.0159,-0.0119,0.0065,0.0018,0.0123,0.021,0.0218,0.0272,0.0307,0.0384,0.0416,0.0314,0.0312,0.0311,0.031,0,-0.0649,-0.0666,-0.0701,-0.07,-0.0681,-0.068,-0.0661,-0.0587,-0.0561,-0.0466,-0.043,-0.0299,-0.0222,-0.0083,0.0093,0.0081,0.0299,0.0312,0.0432,0.0435,0.0467,0.0469,0.0444,0.0444,0.0443,0.0443,0.0443,0,-0.0712,-0.0738,-0.0738,-0.0759,-0.0791,-0.0747,-0.0753,-0.0709,-0.0636,-0.0596,-0.0481,-0.0409,-0.0208,-0.0057,0.0087,0.0296,0.0301,0.0434,0.0477,0.0439,0.0437,0.0414,0.0409,0.0448,0.0447,0.0446,0.0445,0,-0.0778,-0.0778,-0.0822,-0.0825,-0.0827,-0.085,-0.0827,-0.0819,-0.0743,-0.0684,-0.0655,-0.0475,-0.0273,-0.0072,0.018,0.0297,0.0487,0.0561,0.0494,0.0527,0.0574,0.0564,0.0703,0.0705,0.0707,0.0708,0.0709,0,-0.0817,-0.0848,-0.0884,-0.0914,-0.0921,-0.094,-0.0946,-0.0883,-0.0861,-0.0714,-0.0685,-0.0478,-0.0309,0.0052,0.0297,0.0558,0.0558,0.0673,0.0649,0.0576,0.0604,0.0591,0.0578,0.0662,0.0663,0.0664,0.0664,0,-0.0888,-0.0899,-0.0935,-0.1005,-0.1033,-0.1056,-0.1053,-0.1045,-0.0945,-0.086,-0.0695,-0.0544,-0.0193,0.0106,0.0429,0.0573,0.0622,0.0693,0.0666,0.059,0.0546,0.057,0.0558,0.0669,0.0669,0.0668,0.0668,0.0668,-0.0932,-0.098,-0.103,-0.1099,-0.1135,-0.1159,-0.1185,-0.1125,-0.1059,-0.0903,-0.0714,-0.046,-0.0174,0.0289,0.0516,0.071,0.0712,0.076,0.0755,0.0751,0.0711,0.0672,0.081,0.0811,0.0811,0.0811,0.0811,0,-0.0999,-0.1051,-0.112,-0.1202,-0.1268,-0.1254,-0.1253,-0.1239,-0.1156,-0.0918,-0.0713,-0.0345,0.0003,0.0276,0.0596,0.0793,0.0767,0.0811,0.0745,0.074,0.0735,0.0691,0.0788,0.0788,0.0788,0.0789,0,0,-0.1034,-0.1127,-0.1175,-0.1309,-0.1363,-0.1412,-0.1414,-0.1329,-0.118,-0.0931,-0.0695,-0.0375,-0.0011,0.0214,0.047,0.0629,0.0619,0.0634,0.0635,0.052,0.0512,0.0694,0.0619,0,0,0,0,0]}],[{"header":{"parameterUnit":"m.s-1","parameterCategory":2,"la1":30.2991,"la2":30.254,"lo1":-89.0895,"lo2":-89.0444,"dy":0.0017,"dx":0.0017,"nx":28,"ny":28,"refTime":"2025-06-13T21:00:00:Z","depth":"4","parameterNumber":2,"parameterNumberName":"U-component_of_CURRENTS"},"data":[0,0,0,0,0,0,0,0,0,0,0,0,0,0,0,0,0,0,0,0,0,0,0,0,0,0,0,0,0,0,0,0,0,0,0,0,0,0,0,0,0,0,0,0,0,0,0,0,0,0,0,0,0,0,0,0,0,0,-0.1824,-0.1825,0,-0.1907,-0.1908,-0.1908,-0.1951,-0.1951,-0.1951,-0.1952,-0.2013,-0.2014,-0.2016,0,0,0,0,0,0,0,0,0,0,0,0,0,-0.1706,-0.1708,-0.1824,-0.1825,-0.1826,-0.1907,-0.1908,-0.1909,-0.1951,-0.1951,-0.1951,-0.1952,-0.2012,-0.2014,-0.2016,0,0,0,0,0,0,0,0,0,0,0,0,0,-0.1768,-0.1708,-0.1824,-0.1859,-0.1863,-0.1906,-0.1908,-0.1909,-0.1951,-0.1951,-0.1952,-0.1952,-0.2012,-0.2014,-0.2016,-0.2023,0,0,-0.2023,-0.2024,0,0,0,0,0,0,0,0,-0.1765,-0.1772,-0.1852,-0.1856,-0.1861,-0.1921,-0.1889,-0.1947,-0.1951,-0.1915,-0.1952,-0.1952,-0.1981,-0.1986,-0.1998,-0.2026,-0.2029,-0.2023,-0.2024,-0.2025,-0.2026,0,0,0,0,0,0,0,-0.176,-0.1769,-0.1855,-0.1854,-0.1859,-0.1871,-0.188,-0.19,-0.1944,-0.1919,-0.1922,-0.1934,-0.1983,-0.1996,-0.2,-0.2029,-0.2023,-0.2025,-0.2026,-0.2027,-0.214,-0.2141,0,0,0,0,0,0,-0.1753,-0.1765,-0.1852,-0.1858,-0.1815,-0.1873,-0.1883,-0.19,-0.1944,-0.1952,-0.1934,-0.1936,-0.1992,-0.1997,-0.2002,-0.2085,-0.2025,-0.2027,-0.2028,-0.2138,-0.214,-0.2142,0,0,0,0,0,0,-0.1751,-0.1761,-0.1849,-0.1814,-0.1827,-0.1875,-0.1893,-0.1901,-0.1945,-0.1956,-0.1963,-0.1973,-0.1993,-0.1999,-0.2052,-0.2085,-0.2028,-0.203,-0.2136,-0.2139,-0.2141,-0.2205,0,0,0,0,0,0,-0.1747,-0.1759,-0.1784,-0.1814,-0.1828,-0.1898,-0.1893,-0.1903,-0.195,-0.1955,-0.1991,-0.1996,-0.1993,-0.2049,-0.2054,-0.2087,-0.2032,-0.2134,-0.2137,-0.214,-0.2201,-0.2209,-0.2217,0,0,0,0,0,-0.1742,-0.1771,-0.1784,-0.1796,-0.1856,-0.1899,-0.1909,-0.1942,-0.1952,-0.198,-0.2008,-0.1996,-0.2072,-0.2052,-0.2058,-0.2092,-0.2132,-0.2136,-0.214,-0.2197,-0.2208,-0.2217,0,0,0,0,0,0,-0.1734,-0.1779,-0.1794,-0.1836,-0.1876,-0.1908,-0.1942,-0.1961,-0.2005,-0.2018,-0.2022,-0.2029,-0.2086,-0.2083,-0.206,-0.2134,-0.2099,-0.2104,-0.214,-0.2151,-0.2158,-0.2149,-0.2033,0,0,0,0,0,-0.1743,-0.1778,-0.1818,-0.1856,-0.1878,-0.1916,-0.1943,-0.1968,-0.2003,-0.2025,-0.205,-0.2076,-0.2101,-0.2122,-0.2143,-0.2187,-0.2161,-0.2212,-0.222,-0.2227,-0.2224,-0.2224,-0.2231,-0.2154,-0.2154,-0.2154,0,0,-0.175,-0.1781,-0.1802,-0.1857,-0.1891,-0.1933,-0.1934,-0.1989,-0.2029,-0.2023,-0.2094,-0.211,-0.212,-0.217,-0.2194,-0.2175,-0.2234,-0.2232,-0.2238,-0.2231,-0.2228,-0.2235,-0.2242,-0.2157,-0.2157,-0.2156,0,0,-0.1774,-0.1812,-0.1848,-0.1886,-0.1945,-0.1969,-0.1991,-0.2044,-0.2077,-0.214,-0.2144,-0.2181,-0.2229,-0.2239,-0.2248,-0.2314,-0.2277,-0.2326,-0.2361,-0.2362,-0.2367,-0.2372,-0.2338,-0.234,-0.233,-0.233,-0.233,0,-0.1784,-0.1831,-0.1866,-0.191,-0.1947,-0.1988,-0.2033,-0.2073,-0.2139,-0.2165,-0.2174,-0.2244,-0.2258,-0.23,-0.2325,-0.2332,-0.2313,-0.2323,-0.237,-0.2375,-0.2378,-0.2343,-0.2343,-0.2333,-0.2333,-0.2333,-0.2332,0,-0.1823,-0.1876,-0.1903,-0.197,-0.2014,-0.2063,-0.2116,-0.2168,-0.221,-0.224,-0.2306,-0.2328,-0.2361,-0.2378,-0.2374,-0.2413,-0.2384,-0.238,-0.2341,-0.239,-0.2349,-0.2348,-0.2339,-0.2337,-0.2336,-0.2335,0,0,-0.18,-0.191,-0.1922,-0.1963,-0.2051,-0.2085,-0.2161,-0.2226,-0.2266,-0.2332,-0.2374,-0.243,-0.2438,-0.2447,-0.2451,-0.2457,-0.2468,-0.2435,-0.2434,-0.2393,-0.2446,-0.2282,-0.2265,-0.2475,-0.2475,-0.2476,-0.2403,0,-0.1822,-0.1907,-0.196,-0.2044,-0.2088,-0.2153,-0.2213,-0.2279,-0.233,-0.2381,-0.2415,-0.2458,-0.2465,-0.2482,-0.2495,-0.2474,-0.2471,-0.2487,-0.2412,-0.2409,-0.2251,-0.2261,-0.2478,-0.2402,-0.2402,-0.2401,-0.2401,0,-0.1831,-0.189,-0.1976,-0.2075,-0.2101,-0.216,-0.2249,-0.2309,-0.2385,-0.2422,-0.2473,-0.2493,-0.2524,-0.2518,-0.251,-0.252,-0.249,-0.2469,-0.2466,-0.2287,-0.2244,-0.2347,-0.2399,-0.2399,-0.24,-0.24,-0.24,0,-0.1776,-0.1894,-0.1963,-0.2001,-0.212,-0.2173,-0.2236,-0.2324,-0.2366,-0.2445,-0.247,-0.2516,-0.2529,-0.2521,-0.2488,-0.2503,-0.245,-0.2461,-0.2283,-0.227,-0.2412,-0.2408,-0.2447,-0.2447,-0.2447,-0.2447,-0.2448,0,-0.1754,-0.1812,-0.1949,-0.1985,-0.2058,-0.2153,-0.2227,-0.2292,-0.2374,-0.2398,-0.2483,-0.2484,-0.2533,-0.2511,-0.2484,-0.236,-0.2445,-0.2273,-0.2239,-0.244,-0.244,-0.241,-0.2407,-0.2445,-0.2445,-0.2446,-0.2446,0,-0.1676,-0.1773,-0.1854,-0.1993,-0.2036,-0.2087,-0.2212,-0.2245,-0.2344,-0.2373,-0.2396,-0.2459,-0.2417,-0.2428,-0.2391,-0.2322,-0.2243,-0.2181,-0.2367,-0.2348,-0.2064,-0.2065,-0.1968,-0.1961,-0.1956,-0.1951,-0.1948,0,-0.164,-0.1678,-0.1834,-0.1872,-0.194,-0.2034,-0.208,-0.2209,-0.2233,-0.2323,-0.2305,-0.2319,-0.2333,-0.2133,-0.2181,-0.2095,-0.2081,-0.2031,-0.2073,-0.2037,-0.2015,-0.2025,-0.2033,-0.1939,-0.1938,-0.1936,-0.1935,0,-0.1554,-0.1627,-0.1688,-0.1768,-0.1836,-0.19,-0.1978,-0.1983,-0.2097,-0.2211,-0.2135,-0.2099,-0.2041,-0.2,-0.1942,-0.1895,-0.2062,-0.1975,-0.1987,-0.2026,-0.2001,-0.1987,-0.2001,-0.1916,-0.1919,-0.192,-0.1921,0,-0.1478,-0.1494,-0.1574,-0.162,-0.1702,-0.1716,-0.1796,-0.1805,-0.1847,-0.1955,-0.1918,-0.1935,-0.1999,-0.1893,-0.1842,-0.1775,-0.176,-0.1718,-0.1743,-0.1765,-0.1735,-0.1676,-0.1444,0,0,0,0,0,-0.1383,-0.1368,-0.1409,-0.1446,-0.1521,-0.1563,-0.1685,-0.1767,-0.1886,-0.1772,-0.1839,-0.1772,-0.1692,-0.1712,-0.1597,-0.1762,-0.1777,-0.1626,-0.1746,-0.1811,-0.1833,-0.1819,0,0,0,0,0,0,-0.131,-0.1341,-0.1345,-0.1276,-0.1266,-0.1325,-0.1402,-0.1503,-0.1457,-0.1584,-0.1542,-0.1642,-0.1586,-0.1693,-0.154,-0.1548,-0.1587,-0.1656,-0.1651,-0.1799,-0.1819,-0.1836,-0.1829,0,0,0,0,0]},{"header":{"parameterUnit":"m.s-1","parameterCategory":2,"la1":30.2991,"la2":30.254,"lo1":-89.0895,"lo2":-89.0444,"dy":0.0017,"dx":0.0017,"nx":28,"ny":28,"refTime":"2025-06-13T21:00:00:Z","depth":"4","parameterNumber":3,"parameterNumberName":"V-component_of_CURRENTS"},"data":[0,0,0,0,0,0,0,0,0,0,0,0,0,0,0,0,0,0,0,0,0,0,0,0,0,0,0,0,0,0,0,0,0,0,0,0,0,0,0,0,0,0,0,0,0,0,0,0,0,0,0,0,0,0,0,0,0,0,-0.0201,-0.02,0,-0.0132,-0.0131,-0.013,-0.0091,-0.0091,-0.0091,-0.0091,0.0018,0.0021,0.0024,0,0,0,0,0,0,0,0,0,0,0,0,0,-0.0243,-0.0243,-0.0201,-0.02,-0.0199,-0.0132,-0.0131,-0.013,-0.0091,-0.0091,-0.0091,-0.0091,0.0017,0.002,0.0024,0,0,0,0,0,0,0,0,0,0,0,0,0,-0.0203,-0.0242,-0.0201,-0.0173,-0.017,-0.0132,-0.0131,-0.013,-0.0091,-0.0091,-0.0091,-0.0091,0.0016,0.002,0.0024,0.0052,0,0,0.0038,0.004,0,0,0,0,0,0,0,0,-0.0205,-0.0201,-0.0178,-0.0175,-0.0172,-0.0122,-0.0106,-0.0067,-0.0091,-0.0119,-0.0091,-0.0091,-0.0026,-0.0018,-0.0004,0.0057,0.0062,0.0038,0.0041,0.0043,0.0044,0,0,0,0,0,0,0,-0.0208,-0.0204,-0.0172,-0.0177,-0.0173,-0.0145,-0.014,-0.0098,-0.0071,-0.0117,-0.0114,-0.0109,-0.0024,-0.0008,-0.0001,0.0063,0.0038,0.0042,0.0045,0.0046,0.0164,0.0165,0,0,0,0,0,0,-0.0223,-0.0207,-0.0174,-0.017,-0.0191,-0.0145,-0.0139,-0.0136,-0.0073,-0.0064,-0.0109,-0.0108,-0.0015,-0.0006,0.0003,0.0039,0.0043,0.0047,0.0049,0.0164,0.0164,0.0165,0,0,0,0,0,0,-0.0224,-0.0221,-0.0177,-0.0188,-0.0181,-0.0145,-0.0142,-0.0135,-0.0121,-0.0068,-0.0058,-0.0103,-0.0015,-0.0003,0.004,0.0043,0.0049,0.0053,0.0163,0.0164,0.0165,0.011,0,0,0,0,0,0,-0.0226,-0.0222,-0.0227,-0.0189,-0.0181,-0.016,-0.0142,-0.0134,-0.0119,-0.0116,-0.0059,-0.0049,-0.0014,0.0034,0.0045,0.0049,0.0056,0.0162,0.0163,0.0164,0.0111,0.0109,0.0107,0,0,0,0,0,-0.0228,-0.0235,-0.0228,-0.0224,-0.0188,-0.0161,-0.0154,-0.0127,-0.0119,-0.0114,-0.0073,-0.0051,0.0048,0.0038,0.0051,0.0056,0.0162,0.0163,0.0164,0.0112,0.0109,0.0107,0,0,0,0,0,0,-0.0255,-0.0231,-0.0222,-0.0222,-0.0197,-0.0155,-0.0151,-0.0131,-0.0095,-0.0093,-0.0043,-0.0029,0.0008,0.0043,0.003,0.0094,0.0108,0.0112,0.0064,0.0062,0.006,0.0041,0.006,0,0,0,0,0,-0.0265,-0.0266,-0.0234,-0.0234,-0.0225,-0.0189,-0.0176,-0.0157,-0.0121,-0.0106,-0.0065,-0.0019,0.0024,0.005,0.0091,0.0128,0.0157,0.0141,0.0139,0.0136,0.0131,0.0181,0.0182,0.0168,0.0168,0.0168,0,0,-0.0277,-0.0264,-0.0264,-0.0241,-0.022,-0.0209,-0.0181,-0.0165,-0.0152,-0.0098,-0.0069,-0.0027,0.0032,0.007,0.0091,0.0099,0.0155,0.0138,0.0135,0.0131,0.0182,0.0183,0.0184,0.0169,0.0169,0.0169,0,0,-0.0299,-0.0289,-0.0295,-0.0278,-0.0253,-0.0228,-0.0227,-0.0187,-0.0167,-0.0133,-0.0091,-0.0047,0.0016,0.006,0.009,0.0103,0.0138,0.0116,0.0094,0.0142,0.0143,0.0145,0.0174,0.0178,0.0118,0.0118,0.0118,0,-0.0314,-0.0319,-0.0292,-0.029,-0.0283,-0.0241,-0.0243,-0.0212,-0.0163,-0.0148,-0.0132,-0.0036,0.0012,0.0065,0.007,0.0098,0.0122,0.0095,0.0137,0.014,0.0142,0.0172,0.0177,0.0116,0.0116,0.0116,0.0117,0,-0.0335,-0.0341,-0.0343,-0.033,-0.0314,-0.0311,-0.027,-0.025,-0.0223,-0.019,-0.0139,-0.0069,-0.0015,0.0012,0.0047,0.0089,0.01,0.0124,0.0138,0.014,0.0171,0.0178,0.0112,0.0113,0.0114,0.0114,0,0,-0.0367,-0.0362,-0.0364,-0.0373,-0.0339,-0.0332,-0.031,-0.0279,-0.0272,-0.0212,-0.0191,-0.0106,-0.0073,-0.0035,0.0018,0.0067,0.0106,0.0096,0.01,0.0113,0.0197,0.0181,0.0187,0.0135,0.0136,0.0137,0.0209,0,-0.0395,-0.0416,-0.0398,-0.0415,-0.0422,-0.0383,-0.0369,-0.0334,-0.0294,-0.0261,-0.0181,-0.0139,-0.0088,-0.0064,-0.0008,0.0077,0.0123,0.0083,0.0204,0.0207,0.0184,0.0195,0.014,0.0214,0.0215,0.0217,0.0217,0,-0.042,-0.0435,-0.0463,-0.047,-0.047,-0.047,-0.0451,-0.0432,-0.0368,-0.0336,-0.0276,-0.0213,-0.0131,-0.009,0.0049,0.0019,0.0099,0.0167,0.0172,0.018,0.0204,0.0217,0.023,0.0229,0.0228,0.0227,0.0227,0,-0.0463,-0.048,-0.0512,-0.0513,-0.0507,-0.0515,-0.0508,-0.0461,-0.0449,-0.0385,-0.0365,-0.0262,-0.0206,-0.0095,0.0048,0.0047,0.0198,0.0218,0.0279,0.0279,0.0294,0.0292,0.0315,0.0315,0.0314,0.0314,0.0314,0,-0.0497,-0.0525,-0.0542,-0.056,-0.0601,-0.0572,-0.0595,-0.0568,-0.0525,-0.0506,-0.0414,-0.0364,-0.0203,-0.0092,0.0029,0.017,0.0186,0.0273,0.0299,0.0269,0.0264,0.0298,0.0295,0.0317,0.0316,0.0316,0.0315,0,-0.0535,-0.0545,-0.0591,-0.0612,-0.0625,-0.0655,-0.0664,-0.0669,-0.0622,-0.0593,-0.0573,-0.0438,-0.029,-0.0131,0.0061,0.0142,0.0281,0.033,0.0272,0.0295,0.0329,0.0323,0.0391,0.0391,0.0391,0.0391,0.0391,0,-0.0555,-0.0583,-0.0643,-0.0683,-0.07,-0.0738,-0.0758,-0.0725,-0.0718,-0.0626,-0.0608,-0.0464,-0.0358,-0.0102,0.0058,0.0269,0.0306,0.0356,0.0354,0.032,0.0339,0.0332,0.0326,0.0392,0.0392,0.0392,0.0392,0,-0.0597,-0.0624,-0.0666,-0.0752,-0.0797,-0.0837,-0.0856,-0.085,-0.0789,-0.0752,-0.0613,-0.0464,-0.0297,-0.0095,0.0068,0.0223,0.0307,0.0358,0.0359,0.0357,0.0321,0.0339,0.0332,0.0392,0.0392,0.0392,0.0392,0,-0.0631,-0.0679,-0.0744,-0.0815,-0.0881,-0.0914,-0.0911,-0.087,-0.0842,-0.0717,-0.0668,-0.0467,-0.0339,-0.0117,0.0035,0.0177,0.0213,0.0245,0.0252,0.0254,0.0192,0.0125,0.0157,0,0,0,0,0,-0.0664,-0.0726,-0.0801,-0.0883,-0.0948,-0.0976,-0.0969,-0.0943,-0.0874,-0.0779,-0.0715,-0.0544,-0.0286,-0.0169,-0.0027,0.0011,0.0209,0.0175,0.0241,0.0394,0.0393,0.0343,0,0,0,0,0,0,-0.0692,-0.0772,-0.0811,-0.0923,-0.0983,-0.1041,-0.1028,-0.0973,-0.0899,-0.0803,-0.0655,-0.0549,-0.0295,-0.0377,-0.0041,0.0004,0.0057,0.0306,0.0309,0.0394,0.0393,0.0393,0.0341,0,0,0,0,0]}]]